• In United Kingdom
  • List of Countries
  • For 7 days
  • Water Temperature
  • Satellite Maps
  • Weather Map
  • Weather Widgets
  • user-avatar
    Login

    Hourly Weather Kalat

    Today, 26 September, Wednesday

    Time Temperature Precipitation Wind Pressure Humidity
    00:00 +4°C° 0 mm 1 mps 479 mmHg 54%
    01:00 +4°C° 0 mm 1 mps 478 mmHg 54%
    02:00 +3°C° 0 mm 0 mps 478 mmHg 55%
    03:00 +2°C° 0 mm 0 mps 478 mmHg 55%
    04:00 +2°C° 0 mm 0 mps 478 mmHg 56%
    05:00 +2°C° 0 mm 0 mps 477 mmHg 55%
    06:00 +2°C° 0 mm 0 mps 478 mmHg 51%
    07:00 +3°C° 0 mm 0 mps 479 mmHg 47%
    08:00 +4°C° 0 mm 0 mps 479 mmHg 44%
    09:00 +6°C° 0.1 mm 1 mps 480 mmHg 41%
    10:00 +6°C° 0.1 mm 1 mps 480 mmHg 39%
    11:00 +6°C° 0 mm 2 mps 481 mmHg 38%
    12:00 +6°C° 0.3 mm 2 mps 481 mmHg 39%
    13:00 +6°C° 0.3 mm 2 mps 480 mmHg 41%
    14:00 +6°C° 0.3 mm 2 mps 480 mmHg 42%
    15:00 +6°C° 0.4 mm 2 mps 480 mmHg 46%
    16:00 +5°C° 0.4 mm 2 mps 480 mmHg 49%
    17:00 +5°C° 0.4 mm 2 mps 479 mmHg 53%
    18:00 +4°C° 0.2 mm 2 mps 479 mmHg 55%
    19:00 +4°C° 0.2 mm 2 mps 479 mmHg 57%
    20:00 +4°C° 0.2 mm 1 mps 479 mmHg 59%
    21:00 +4°C° 0 mm 1 mps 479 mmHg 60%
    22:00 +4°C° 0 mm 1 mps 479 mmHg 62%
    23:00 +3°C° 0 mm 1 mps 479 mmHg 64%

    Tomorrow, 27 September, Thursday

    Time Temperature Precipitation Wind Pressure Humidity
    00:00 +3°C° 0 mm 1 mps 478 mmHg 65%
    01:00 +1°C° 0 mm 0 mps 478 mmHg 66%
    02:00 +1°C° 0 mm 0 mps 478 mmHg 68%
    03:00 +1°C° 0 mm 0 mps 477 mmHg 68%
    04:00 0°C° 0 mm 0 mps 477 mmHg 68%
    05:00 0°C° 0 mm 0 mps 477 mmHg 68%
    06:00 +2°C° 0 mm 1 mps 478 mmHg 63%
    07:00 +3°C° 0 mm 1 mps 478 mmHg 58%
    08:00 +3°C° 0 mm 1 mps 479 mmHg 53%
    09:00 +4°C° 0 mm 1 mps 480 mmHg 49%
    10:00 +5°C° 0 mm 1 mps 480 mmHg 45%
    11:00 +6°C° 0 mm 1 mps 481 mmHg 40%
    12:00 +6°C° 0.1 mm 2 mps 481 mmHg 41%
    13:00 +6°C° 0.1 mm 2 mps 481 mmHg 41%
    14:00 +7°C° 0.1 mm 2 mps 481 mmHg 41%
    15:00 +6°C° 0.3 mm 2 mps 481 mmHg 46%
    16:00 +5°C° 0.3 mm 2 mps 480 mmHg 50%
    17:00 +4°C° 0.3 mm 2 mps 480 mmHg 55%
    18:00 +4°C° 0.3 mm 2 mps 480 mmHg 58%
    19:00 +3°C° 0.3 mm 2 mps 480 mmHg 60%
    20:00 +2°C° 0.3 mm 2 mps 480 mmHg 63%
    21:00 +2°C° 0.1 mm 2 mps 479 mmHg 64%
    22:00 +3°C° 0.1 mm 1 mps 479 mmHg 65%
    23:00 +2°C° 0.1 mm 1 mps 479 mmHg 66%

    Day after tomorrow, 28 September, Friday

    Time Temperature Precipitation Wind Pressure Humidity
    00:00 +2°C° 0 mm 1 mps 479 mmHg 68%
    01:00 +1°C° 0 mm 1 mps 478 mmHg 69%
    02:00 +1°C° 0 mm 1 mps 478 mmHg 70%
    03:00 +1°C° 0 mm 1 mps 478 mmHg 70%
    04:00 +1°C° 0 mm 1 mps 478 mmHg 70%
    05:00 0°C° 0 mm 1 mps 477 mmHg 71%
    06:00 +1°C° 0 mm 1 mps 478 mmHg 67%
    07:00 +1°C° 0 mm 2 mps 479 mmHg 63%
    08:00 +1°C° 0 mm 2 mps 479 mmHg 59%
    09:00 +2°C° 0 mm 2 mps 480 mmHg 54%
    10:00 +3°C° 0 mm 2 mps 481 mmHg 49%
    11:00 +4°C° 0 mm 2 mps 481 mmHg 44%
    12:00 +5°C° 0.1 mm 2 mps 481 mmHg 43%
    13:00 +5°C° 0.1 mm 2 mps 482 mmHg 42%
    14:00 +5°C° 0.1 mm 3 mps 482 mmHg 41%
    15:00 +5°C° 0.2 mm 3 mps 481 mmHg 43%
    16:00 +4°C° 0.2 mm 3 mps 481 mmHg 45%
    17:00 +4°C° 0.2 mm 3 mps 481 mmHg 47%
    18:00 +4°C° 0.1 mm 2 mps 481 mmHg 50%
    19:00 +3°C° 0.1 mm 2 mps 481 mmHg 53%
    20:00 +2°C° 0.1 mm 2 mps 480 mmHg 56%
    21:00 +2°C° 0 mm 2 mps 480 mmHg 57%
    22:00 +1°C° 0 mm 2 mps 480 mmHg 58%
    23:00 +2°C° 0 mm 1 mps 480 mmHg 59%

    29 September, Saturday

    Time Temperature Precipitation Wind Pressure Humidity
    00:00 +2°C° 0 mm 1 mps 479 mmHg 60%
    01:00 +1°C° 0 mm 1 mps 479 mmHg 61%
    02:00 +1°C° 0 mm 1 mps 478 mmHg 62%
    03:00 +1°C° 0 mm 1 mps 478 mmHg 61%
    04:00 +1°C° 0 mm 1 mps 478 mmHg 61%
    05:00 0°C° 0 mm 1 mps 478 mmHg 60%
    06:00 +1°C° 0 mm 1 mps 478 mmHg 55%
    07:00 +2°C° 0 mm 1 mps 479 mmHg 50%
    08:00 +3°C° 0 mm 1 mps 480 mmHg 44%
    09:00 +4°C° 0 mm 1 mps 481 mmHg 42%
    10:00 +5°C° 0 mm 1 mps 481 mmHg 39%
    11:00 +5°C° 0 mm 2 mps 482 mmHg 36%
    12:00 +6°C° 0 mm 2 mps 482 mmHg 36%
    13:00 +6°C° 0 mm 2 mps 482 mmHg 37%
    14:00 +7°C° 0 mm 2 mps 482 mmHg 37%
    15:00 +7°C° 0.1 mm 2 mps 482 mmHg 39%
    16:00 +6°C° 0.1 mm 2 mps 481 mmHg 41%
    17:00 +6°C° 0.1 mm 2 mps 481 mmHg 43%
    18:00 +5°C° 0.1 mm 2 mps 481 mmHg 47%
    19:00 +5°C° 0.1 mm 1 mps 481 mmHg 51%
    20:00 +4°C° 0.1 mm 1 mps 481 mmHg 54%
    21:00 +4°C° 0 mm 1 mps 480 mmHg 56%
    22:00 +3°C° 0 mm 0 mps 480 mmHg 58%
    23:00 +3°C° 0 mm 0 mps 480 mmHg 61%

    30 September, Sunday

    Time Temperature Precipitation Wind Pressure Humidity
    00:00 +2°C° 0 mm 0 mps 480 mmHg 62%
    01:00 +2°C° 0 mm 0 mps 479 mmHg 63%
    02:00 +2°C° 0 mm 0 mps 479 mmHg 64%
    03:00 +1°C° 0 mm 0 mps 478 mmHg 64%
    04:00 +1°C° 0 mm 0 mps 478 mmHg 65%
    05:00 +2°C° 0 mm 1 mps 478 mmHg 66%
    06:00 +2°C° 0 mm 1 mps 478 mmHg 63%
    07:00 +3°C° 0 mm 1 mps 479 mmHg 60%
    08:00 +4°C° 0 mm 1 mps 479 mmHg 57%
    09:00 +5°C° 0 mm 1 mps 480 mmHg 52%
    10:00 +6°C° 0 mm 1 mps 480 mmHg 46%
    11:00 +7°C° 0 mm 1 mps 481 mmHg 41%
    12:00 +6°C° 0 mm 2 mps 481 mmHg 39%
    13:00 +7°C° 0 mm 2 mps 481 mmHg 38%
    14:00 +7°C° 0 mm 2 mps 481 mmHg 36%
    15:00 +7°C° 0.1 mm 2 mps 480 mmHg 38%
    16:00 +6°C° 0.1 mm 2 mps 480 mmHg 40%
    17:00 +5°C° 0.1 mm 2 mps 480 mmHg 43%
    18:00 +5°C° 0.2 mm 2 mps 480 mmHg 46%
    19:00 +5°C° 0.2 mm 1 mps 479 mmHg 50%
    20:00 +4°C° 0.2 mm 1 mps 479 mmHg 53%
    21:00 +4°C° 0.1 mm 1 mps 479 mmHg 55%
    22:00 +4°C° 0.1 mm 1 mps 479 mmHg 57%
    23:00 +3°C° 0.1 mm 1 mps 479 mmHg 58%

    1 October, Monday

    Time Temperature Precipitation Wind Pressure Humidity
    00:00 +3°C° 0 mm 1 mps 478 mmHg 60%
    01:00 +2°C° 0 mm 1 mps 478 mmHg 62%
    02:00 +2°C° 0 mm 1 mps 477 mmHg 63%
    03:00 +1°C° 0 mm 1 mps 477 mmHg 63%
    04:00 +1°C° 0 mm 1 mps 477 mmHg 63%
    05:00 +1°C° 0 mm 1 mps 477 mmHg 64%
    06:00 +2°C° 0 mm 1 mps 477 mmHg 57%
    07:00 +2°C° 0 mm 1 mps 478 mmHg 51%
    08:00 +3°C° 0 mm 1 mps 479 mmHg 45%
    09:00 +4°C° 0 mm 1 mps 479 mmHg 40%
    10:00 +5°C° 0 mm 1 mps 480 mmHg 35%
    11:00 +5°C° 0 mm 2 mps 481 mmHg 29%
    12:00 +6°C° 0 mm 2 mps 481 mmHg 30%
    13:00 +6°C° 0 mm 2 mps 481 mmHg 31%
    14:00 +6°C° 0 mm 2 mps 481 mmHg 32%
    15:00 +6°C° 0.2 mm 2 mps 480 mmHg 36%
    16:00 +5°C° 0.2 mm 2 mps 480 mmHg 41%
    17:00 +4°C° 0.2 mm 2 mps 480 mmHg 45%
    18:00 +4°C° 0.1 mm 2 mps 480 mmHg 48%
    19:00 +3°C° 0.1 mm 2 mps 480 mmHg 51%
    20:00 +2°C° 0.1 mm 2 mps 480 mmHg 53%
    21:00 +2°C° 0 mm 2 mps 479 mmHg 55%
    22:00 +3°C° 0 mm 1 mps 479 mmHg 56%
    23:00 +2°C° 0 mm 1 mps 479 mmHg 58%
    Show more